Tracking 30510 objects as of 22-May-2025
HD Live streaming from Space Station
objects crossing your sky now

STARLINK-1600

Track STARLINK-1600 now!
10-day predictions
STARLINK-1600 is classified as:


NORAD ID: 46161
Int'l Code: 2020-057AW
Perigee: 314.8 km
Apogee: 326.7 km
Inclination: 53.0 °
Period: 90.8 minutes
Semi major axis: 6691 km
RCS: Unknown
Launch date: August 18, 2020
Source: United States (US)
Launch site: AIR FORCE EASTERN TEST RANGE (AFETR)
Your satellite tracking list
Your tracking list is empty




NASA's NSSDC Master Catalog

Two Line Element Set (TLE):
1 46161U 20057AW  25142.25002315  .00449360  00000-0  16993-2 0  9990
2 46161  53.0239 113.4567 0008874  53.7240 315.6249 15.85961170263809
Source of the keplerian elements: AFSPC